Location: Unspecified
(0.0000°N, 0.0000°E)
Time: 06:02:05
(UTC+00:00)

S-56A Canister/Altair - Pass Details

Date: 27 May 2024
Orbit: 637 x 2489 km, 38.9° (Epoch: 21 June)

Event Time Altitude Azimuth Distance (km) Brightness Sun altitude
Rises 12:51:03 0° 317° (NW) 3,490 11.3 64.9°
Reaches altitude 10° 12:53:55 10° 322° (NW) 2,354 10.6 64.5°
Maximum altitude 12:59:01 57° 40° (NE) 793 8.7 63.8°
Drops below altitude 10° 13:03:23 10° 119° (ESE) 2,015 9.6 63.2°
Sets 13:05:39 0° 123° (ESE) 2,937 10.3 62.8°
